www.pogodaiklimat.ru

Погода и климат >> Архив погоды >> Мексика >> Лорето


ПОГОДА в Лорето

  • Прогноз погоды в Лорето
  • Монитор погоды в Лорето

АРХИВ ПОГОДЫ в Лорето

Время (UTC), дата Ветер
(напр.,м/с)
 
Видим.   Явления Облачность Т
(С)
Тd
(С)
f
(%)
Тe
(С)
Тes
(С)
Комфортность P
(гПа)
Po
(гПа)
Тmin
(С)
Tmax
(С)
R
(мм)
R24
(мм)
S
(см)
03 10.09 Ю 2 20 км 4/0
[Ac trans]
+30.5 +23.4 66 +41 +41 опасность
перегрева
1008.7 1008.0
12 10.09 З 2 20 км 1/0
[As trans]
+27.0 +21.0 70 +34 +34 очень
душно
1009.9 1009.2 +26.2 +35.5
15 10.09 З 3 20 км ясно +28.0 +20.6 64 +35 +38 очень
душно
1011.2 1010.5
18 10.09 В 1 20 км 1/1 1000 м
[Sc]
+32.8 +19.2 45 +38 +56 опасность
солнечного
удара
1012.0 1011.2 +25.8 +33.5
21 10.09 СЗ 3 20 км ясно +32.6 +21.3 51 +40 +53 опасность
солнечного
удара
1010.8 1010.0
00 11.09 ЮЗ 4 20 км ясно +31.8 +20.8 52 +39 +41 очень
душно
1010.5 1009.7 +25.8 +34.5
03 11.09 штиль 0 20 км ясно +29.5 +20.2 57 +36 +36 очень
душно
1010.7 1010.0
06 11.09 СЗ 1 20 км ясно +28.0 +19.6 60 +34 +34 очень
душно
1012.3 1011.6 +34.5
12 11.09 З 2 20 км ясно +26.5 +19.7 66 +32 +32 очень
душно
1011.9 1011.1 +25.8 +34.5
15 11.09 З 3 20 км ясно +29.0 +19.8 58 +35 +38 очень
душно
1013.2 1012.4
18 11.09 В 1 20 км ясно +32.3 +21.2 52 +40 +59 опасность
солнечного
удара
1013.3 1012.6 +25.8 +33.1
21 11.09 В 2 20 км 1/1 1000 м
[Sc]
+35.3 +21.4 45 +43 +57 опасность
перегрева
1011.3 1010.5
00 12.09 Ю 3 20 км 3/0
[Ac trans Ci fib]
+31.8 +22.6 58 +41 +43 опасность
перегрева
1009.9 1009.1 +25.8 +35.7
03 12.09 Ю 1 20 км 3/0
[Ac trans]
+29.8 +22.9 67 +40 +40 очень
душно
1010.8 1010.0
12 12.09 штиль 0 20 км 1/0
[Ac trans]
+26.7 +19.3 64 +32 +32 очень
душно
1011.1 1010.3 +26.5 +35.7
15 12.09 штиль 0 20 км ясно +28.0 +18.3 56 +33 +37 очень
душно
1011.6 1010.9
18 12.09 СВ 3 20 км ясно +33.4 +24.2 59 +46 +59 опасность
перегрева
1011.8 1011.1 +25.5 +34.0
21 12.09 СВ 3 20 км 1/0
[Ci fib]
+34.6 +24.4 56 +47 +60 опасность
перегрева
1010.5 1009.7
00 13.09 СВ 3 20 км ясно +34.4 +23.8 54 +46 +48 опасность
перегрева
1008.8 1008.0 +25.5 +35.8
03 13.09 штиль 0 20 км ясно +29.7 +22.9 67 +40 +40 очень
душно
1010.0 1009.2
06 13.09 штиль 0 20 км ясно +28.6 +23.7 75 +39 +39 очень
душно
1010.6 1009.8 +25.5 +35.8
12 13.09 СВ 1 20 км 6/0
[Ac und]
+27.8 +20.1 63 +34 +34 очень
душно
1009.1 1008.4 +26.8 +35.8
15 13.09 ЮЗ 1 20 км 4/0
[Cs]
+30.7 +18.0 47 +35 +39 очень
душно
1011.1 1010.3
18 13.09 ЮВ 2 20 км 5/0
[Ac trans Ci sp]
+34.8 +21.1 45 +42 +54 опасность
перегрева
1010.9 1010.1 +26.6 +35.5
21 13.09 СВ 3 20 км 1/0
[Ac trans]
+34.9 +24.6 55 +48 +60 опасность
перегрева
1009.9 1009.1
00 14.09 штиль 0 20 км 1/0
[Ac trans]
+34.7 +22.8 50 +44 +48 опасность
перегрева
1008.6 1007.9 +26.6 +36.1
03 14.09 штиль 0 20 км ясно +31.3 +25.7 72 +46 +46 опасность
перегрева
1009.5 1008.8
06 14.09 штиль 0 20 км ясно +30.6 +26.1 77 +46 +46 опасность
перегрева
1011.7 1011.0 +36.1
09 14.09 штиль 0 20 км ясно +29.2 +25.2 79 +42 +42 опасность
перегрева
1011.5 1010.7
12 14.09 штиль 0 20 км ясно +28.2 +22.9 73 +38 +38 очень
душно
1010.5 1009.7 +26.8 +36.1
15 14.09 штиль 0 20 км ясно +30.5 +24.8 72 +44 +48 опасность
перегрева
1011.0 1010.2
18 14.09 СВ 2 20 км 1/1 1000 м
[Cu med, cong]
+34.6 +25.6 60 +50 +64 опасность
перегрева
1012.4 1011.6 +26.5 +35.5
21 14.09 Ю 3 20 км 8/1 1000 м
[Cb calv As trans]
+34.6 +25.6 60 +50 +56 опасность
перегрева
1011.2 1010.5
00 15.09 Ю 4 20 км 3/1 1000 м
[Cu med, cong Ac trans]
+33.2 +25.2 63 +47 +49 опасность
перегрева
1009.6 1008.8 +26.5 +35.7
03 15.09 Ю 2 20 км 4/0
[As trans Cs]
+30.7 +25.2 73 +45 +45 опасность
перегрева
1011.1 1010.4
06 15.09 ЮВ 1 20 км ясно +29.7 +24.8 75 +42 +42 опасность
перегрева
1011.2 1010.5 +35.7
09 15.09 Ю 1 20 км ясно +29.0 +25.7 82 +43 +43 опасность
перегрева
1010.6 1009.8
12 15.09 штиль 0 20 км ясно +29.0 +25.7 82 +43 +43 опасность
перегрева
1010.4 1009.7 +28.0 +35.7
15 15.09 СЗ 1 20 км 1/0
[As trans]
+30.0 +26.0 79 +45 +48 опасность
перегрева
1011.5 1010.7
18 15.09 СВ 2 20 км 3/0
[As trans]
+34.5 +24.7 57 +48 +61 опасность
перегрева
1011.4 1010.6 +27.5 +35.1
21 15.09 В 3 20 км 5/3 1000 м
[Cu hum As trans]
+36.2 +24.1 50 +48 +55 опасность
перегрева
1009.6 1008.9
00 16.09 Ю 2 20 км 4/3 1000 м
[Cu med, cong As trans]
+34.0 +22.4 51 +43 +45 опасность
перегрева
1009.1 1008.4 +27.5 +36.7
03 16.09 Ю 3 20 км 3/0
[As trans]
+31.2 +32.9 100 +62 +62 опасность
перегрева
1010.3 1009.5
06 16.09 Ю 1 20 км ясно +30.3 +24.0 69 +42 +42 опасность
перегрева
1010.9 1010.1 +27.5 +36.7
09 16.09 штиль 0 20 км ясно +20.9 +19 +19 1010.7 1009.9
12 16.09 штиль 0 20 км ясно +28.3 +19.5 59 +34 +34 очень
душно
1010.5 1009.7 +27.8 +36.7
15 16.09 штиль 0 20 км ясно +30.6 +19.7 52 +37 +41 очень
душно
1011.5 1010.7
18 16.09 В 2 20 км ясно +35.3 +23.5 51 +46 +62 опасность
перегрева
1011.5 1010.9 +27.0 +35.6
21 16.09 В 1 20 км 1/1 1000 м
[Cu hum]
+36.3 +25.1 53 +50 +66 опасность
перегрева
1009.8 1009.0
00 17.09 Ю 3 20 км 1/1 1000 м
[Cu hum]
+34.4 +25.1 59 +48 +50 опасность
перегрева
1008.7 1008.0 +27.0 +37.0

 

Местоположение метеостанции Лорето (Мексика): широта 26.02 долгота -111.30 высота над уровнем моря 7 м.

В архиве по умолчанию представлена погода в Лорето за последнюю неделю. Архивные данные за месяц целиком и за предыдущие месяцы, начиная с января 2011 года, Вы можете получить, выбрав интересующий диапазон дат из раскрывающегося списка и нажав кнопку "Ввод!".


*Определитесь, кто Вы:
робот инопланетянин человек

Внимание! Время в таблицах - всемирное. Для получения местного времени необходимо прибавить поправку, которая равна -6 ч.

Смотрите также архив погоды в соседних городах и на ближайших метеорологических станциях:

Погода в Сьюдад-Конститусьоне (Мексика) (126 км)
Погода в Санта-Розалии (Мексика) (169 км)
Погода в Сьюдад-Обрегоне (Мексика) (211 км)
Погода в Гуаймасе (Мексика) (215 км)
Погода в Эмпальме (Мексика) (223 км)
Погода в Ла-Пасе (Мексика) (229 км)
Погода в Чойсе (Мексика) (319 км)
Погода в Эрмосильо Магна (Мексика) (342 км)
Погода в Эрмосильо (Мексика) (342 км)
Погода в Кульякане (Мексика) (415 км)

Пояснения к столбцам:

Ветер - указаны скорость ветра в м/с - средняя за 10 мин, порывы в срок и между сроками (в фигурных скобках) и направление, откуда дует ветер: С - северный, СВ - северо-восточный, В - восточный, ЮВ - юго-восточный, Ю - южный, ЮЗ - юго-западный, З - западный, СЗ - северо-западный.
Видимость - горизонтальная дальность видимости в метрах или километрах. При видимости от 1 до 10 км при отсутствии осадков обычно наблюдается дымка, при ухудшении видимости до 1 км и менее - туман. В сухую погоду видимость может ухудшаться дымом, пылью или мглою.
Явления - указаны атмосферные явления, наблюдавшиеся в срок или в последний час перед сроком; фигурными скобками обозначены явления, наблюдавшиеся между сроками (за 1-3 часа до срока); квадратными скобками обозначены град или гололедные отложения с указанием их диаметра в мм.
Облачность - указаны через наклонную черту общая и нижняя облачность в баллах и высота нижней границы облаков в метрах; квадратными скобками обозначены формы облаков: Ci - перистые, Cs - перисто-слоистые, Cc - перисто-кучевые, Ac - высококучевые, As - высокослоистые, Sc - слоисто-кучевые, Ns - слоисто-дождевые, Cu - кучевые, Cb - кучево-дождевые. Подробнее классификацию облаков см. в Атласе облаков (PDF).
T - Температура воздуха - температура, измеренная на высоте 2 м над землей.
Td - Температура точки росы - температура, при понижении до которой содержащийся в воздухе водяной пар достигнет насыщения.
f - Относительная влажность воздуха - влажноcть воздуха, измеренная на высоте 2 м над землей.
Te - Эффективная температура - температура, которую ощущает одетый по сезону человек в тени. Характеристика душности погоды. При расчете учитывается влияние влажности воздуха и скорости ветра на теплоощущения человека.
Tes - Эффективная температура на солнце - температура, которую ощущает человек, с поправкой на солнечный нагрев. Характеристика знойности погоды. Зависит от высоты солнца над горизонтом, облачности и скорости ветра. Ночью, в пасмурную погоду, а также при ветре 12 м/с и более поправка равна нулю.
P - Атмосферное давление - приведенное к уровню моря атмосферное давление.
Po - Атмосферное давление - измеренное на уровне метеостанции атмосферное давление.
Tmin - Минимальная температура - минимум температуры воздуха на высоте 2 м над землей.
Tmax - Максимальная температура - максимум температуры воздуха на высоте 2 м над землей.
R - Количество осадков - Количество выпавших осадков за период времени, мм. При наведении курсора мыши на число - период времени, за который выпало указанное количество осадков.
R24 - Количество осадков - Количество выпавших осадков за 24 часа, мм.
S - Снежный покров - Высота снежного покрова, см. При наведении курсора мыши на число - состояние снежного покрова и степень покрытия местности в баллах.